www.pogodaiklimat.ru

Погода и климат >> Архив погоды >> Алжир >> Ин-Салах


АРХИВ ПОГОДЫ в Ин-Салах

Время (UTC), дата Ветер
(напр.,м/с)
 
Видим.   Явления Облачность Т
(С)
Тd
(С)
f
(%)
Тe
(С)
Тes
(С)
Комфортность P
(гПа)
Po
(гПа)
Тmin
(С)
Tmax
(С)
R
(мм)
R24
(мм)
S
(см)
00 17.04 СВ 5 10 км 4/0
[Ci sp]
+23.0 +19 +19 1013.4 982.4
03 17.04 СВ 6 10 км 4/0
[Ci sp]
+21.2 -10.3 11 +20 +20 1012.1 981.0
06 17.04 СВ 8 10 км 4/0
[Ci sp]
+22.2 -7.6 13 +20 +21 1012.5 981.5 +20.0
09 17.04 В 9 9000 м пыльный позёмок 4/0
[Ci sp]
+28.5 -7.4 9 +25 +26 комфорт 1013.9 983.5
12 17.04 ЮВ 6 10 км 3/0
[Ci sp]
+35.7 -2.0 9 +32 +39 жарко 1012.3 982.6
15 17.04 Ю 4 20 км 3/0
[Ci sp]
+37.1 +32 +39 жарко 1009.6 980.1
18 17.04 З 2 15 км 3/0
[Ci sp]
+35.2 +30 +30 жарко 1009.1 979.5 +37.8
21 17.04 штиль 0 10 км 3/0
[Ci sp]
+27.9 +23 +23 комфорт 1010.5 980.1
00 18.04 штиль 0 10 км 3/0
[Ci sp]
+22.1 -9.2 11 +20 +20 1010.2 979.2
03 18.04 СВ 3 10 км 3/0
[Ci sp]
+18.3 -8.5 15 +19 +19 1008.6 977.3
06 18.04 штиль 0 10 км 3/0
[Ci sp]
+15.1 -9.8 17 +15 +16 1009.6 977.9 +14.9
09 18.04 ЮВ 3 8000 м 3/0
[Ci sp]
+28.7 -7.2 9 +25 +35 комфорт 1010.8 980.5
12 18.04 ЮЗ 7 8000 м 3/0
[Ci sp]
+37.1 +19.9 37 +43 +48 опасность
перегрева
1008.7 979.2
15 18.04 ЮЗ 7 6000 м 3/0
[Ci sp]
+38.5 -0.0 9 +35 +37 очень
жарко
1005.8 976.6
18 18.04 З 2 6000 м 6/0
[Ci sp]
+36.0 -1.6 9 +32 +32 жарко 1005.0 975.6 +39.0
21 18.04 В 2 8000 м 5/0
[Ci sp]
+26.4 +22 +22 комфорт 1005.6 975.2
00 19.04 штиль 0 8000 м 5/0
[Ci sp]
+23.2 -11.3 9 +20 +20 1004.9 974.2
03 19.04 В 2 8000 м 5/0
[Ci sp]
+17.6 -7.6 17 +18 +18 1004.1 972.8
06 19.04 штиль 0 8000 м 3/0
[Ci sp]
+15.6 -7.3 20 +16 +16 1005.2 973.7 +15.5
09 19.04 В 4 8000 м ясно +30.2 -4.3 10 +27 +35 жарко 1006.6 976.6
12 19.04 ЮВ 11 8000 м ясно +36.6 +3.3 13 +34 +34 очень
жарко
1005.8 976.4
15 19.04 ЮЗ 12 5000 м пыльный позёмок ясно +39.0 +0.4 9 +35 +35 очень
жарко
1003.1 974.0
18 19.04 ЮЗ 9 5000 м пыльный позёмок ясно +36.2 -1.7 9 +32 +32 жарко 1003.1 973.7 +39.5
21 19.04 З 4 5000 м ясно +30.7 -5.8 9 +27 +27 жарко 1004.9 975.0
00 20.04 ЮЗ 3 6000 м ясно +24.2 +20 +20 1004.5 973.9
03 20.04 ЮВ 3 6000 м ясно +19.3 -7.1 16 +19 +19 1004.2 973.1
06 20.04 В 3 4000 м пыль ясно +17.0 -5.9 20 +17 +18 1005.1 973.8 +16.8
09 20.04 Ю 8 4000 м пыль 4/0
[Ci sp]
+28.4 -3.9 12 +25 +28 комфорт 1005.6 975.4
12 20.04 ЮЗ 11 5000 м пыльный позёмок 5/0
[Ci sp]
+34.1 +29 +29 жарко 1004.8 975.2
15 20.04 ЮЗ 13 5000 м пыльный позёмок 5/0
[Ci sp]
+36.1 +31 +31 жарко 1002.4 973.0
18 20.04 ЮЗ 10 5000 м пыльный позёмок 5/0
[Ci sp]
+34.4 +29 +29 жарко 1002.1 972.6 +36.6
21 20.04 штиль 0 6000 м 5/0
[Ci sp]
+27.0 -8.5 9 +24 +24 комфорт 1002.9 972.6
00 21.04 ЮЗ 5 8000 м 5/0
[Ci sp]
+25.0 -6.6 12 +23 +23 комфорт 1002.3 971.9
03 21.04 ЮЗ 3 8000 м 5/0
[Ci sp]
+20.4 -13.5 9 +20 +20 1001.7 970.8
06 21.04 З 6 8000 м 4/0
[Ci sp]
+21.1 -8.3 13 +20 +20 1002.0 971.2 +20.1
09 21.04 ЮЗ 8 6000 м 4/0
[Ci sp]
+27.2 -7.2 10 +24 +26 комфорт 1003.4 973.2
12 21.04 ЮЗ 10 3000 м пыльный позёмок 4/0
[Ci sp]
+30.5 +25 +26 комфорт 1002.4 972.5
15 21.04 ЮЗ 15 1500 м пыльный позёмок 5/0
[Ci sp]
+32.4 -4.5 9 +29 +29 жарко 1000.4 970.7
18 21.04 ЮЗ 11 1000 м пыльный позёмок 5/0
[Ci sp]
+29.0 -7.0 9 +25 +25 комфорт 1000.6 970.6 +32.6
21 21.04 ЮЗ 5 1500 м пыль 5/0
[Ci sp]
+25.2 +21 +21 комфорт 1003.7 973.2
00 22.04 ЮЗ 3 2000 м пыль 5/0
[Ci sp]
+21.9 -11.0 10 +20 +20 1004.2 973.4
03 22.04 штиль 0 3000 м пыль 5/0
[Ci sp]
+17.9 -9.4 15 +18 +18 1004.0 972.8
06 22.04 штиль 0 5000 м 5/0
[Ci sp]
+14.9 -5.4 24 +15 +16 1005.0 973.4 +14.7
09 22.04 В 6 6000 м ясно +25.1 -1.5 17 +23 +28 комфорт 1006.4 975.9
12 22.04 ЮЗ 4 6000 м 4/0
[Ci sp]
+30.6 -3.6 11 +27 +40 жарко 1004.4 974.5
15 22.04 ЮЗ 6 6000 м 4/0
[Ci sp]
+32.2 -4.6 9 +28 +33 жарко 1001.7 972.0
18 22.04 ЮЗ 6 6000 м 4/0
[Ci sp]
+30.1 -6.2 9 +26 +26 жарко 1001.6 971.7 +33.1
21 22.04 ЮЗ 2 8000 м ясно +24.4 -7.9 11 +22 +22 комфорт 1003.4 972.9
00 23.04 штиль 0 8000 м ясно +17.8 -4.5 21 +18 +18 1003.7 972.5
03 23.04 В 1 8000 м ясно +15.0 -3.0 29 +16 +16 1003.0 971.5
06 23.04 В 2 9000 м ясно +13.2 -2.0 35 +13 +14 1004.2 972.5 +13.1
09 23.04 ЮЗ 3 9000 м ясно +25.6 +2.7 23 +24 +35 комфорт 1005.4 974.9
12 23.04 ЮЗ 4 10 км ясно +31.4 +0.5 14 +28 +44 жарко 1004.6 974.7
15 23.04 ЮЗ 8 10 км ясно +33.7 -3.3 9 +30 +31 жарко 1002.4 972.8
18 23.04 ЮЗ 9 9000 м пыльный позёмок ясно +32.8 -4.2 9 +29 +29 жарко 1002.6 972.9 +34.2
21 23.04 ЮЗ 4 10 км ясно +26.3 -6.6 11 +23 +23 комфорт 1005.0 974.6

 

Местоположение метеостанции Ин-Салах (Алжир): широта 27.23 долгота 2.50 высота над уровнем моря 269 м.

В архиве по умолчанию представлена погода в Ин-Салах за последнюю неделю. Архивные данные за месяц целиком и за предыдущие месяцы, начиная с января 2011 года, Вы можете получить, выбрав интересующий диапазон дат из раскрывающегося списка и нажав кнопку "Ввод!".


*Определитесь, кто Вы:
робот инопланетянин человек

Внимание! Время в таблицах - всемирное. Для получения местного времени необходимо прибавить поправку, которая равна 1 ч.

Смотрите также архив погоды в соседних городах и на ближайших метеорологических станциях:

Погода в Араке (Алжир) (254 км)
Погода в Адраре (Алжир) (274 км)
Погода в Тимимуне (Алжир) (313 км)
Погода в Abankor (Алжир) (326 км)
Погода в Moulay Lachen (Алжир) (350 км)
Погода в Эль-Голеа (Алжир) (373 км)
Погода в Ин-Зиза (Алжир) (418 км)
Погода в Mertouek (Алжир) (455 км)
Погода в Роуд-Ноусс (Алжир) (495 км)
Погода в Tin Fouye (Алжир) (514 км)

Пояснения к столбцам:

Ветер - указаны скорость ветра в м/с - средняя за 10 мин, порывы в срок и между сроками (в фигурных скобках) и направление, откуда дует ветер: С - северный, СВ - северо-восточный, В - восточный, ЮВ - юго-восточный, Ю - южный, ЮЗ - юго-западный, З - западный, СЗ - северо-западный.
Видимость - горизонтальная дальность видимости в метрах или километрах. При видимости от 1 до 10 км при отсутствии осадков обычно наблюдается дымка, при ухудшении видимости до 1 км и менее - туман. В сухую погоду видимость может ухудшаться дымом, пылью или мглою.
Явления - указаны атмосферные явления, наблюдавшиеся в срок или в последний час перед сроком; фигурными скобками обозначены явления, наблюдавшиеся между сроками (за 1-3 часа до срока); квадратными скобками обозначены град или гололедные отложения с указанием их диаметра в мм.
Облачность - указаны через наклонную черту общая и нижняя облачность в баллах и высота нижней границы облаков в метрах; квадратными скобками обозначены формы облаков: Ci - перистые, Cs - перисто-слоистые, Cc - перисто-кучевые, Ac - высококучевые, As - высокослоистые, Sc - слоисто-кучевые, Ns - слоисто-дождевые, Cu - кучевые, Cb - кучево-дождевые. Подробнее классификацию облаков см. в Атласе облаков (PDF).
T - Температура воздуха - температура, измеренная на высоте 2 м над землей.
Td - Температура точки росы - температура, при понижении до которой содержащийся в воздухе водяной пар достигнет насыщения.
f - Относительная влажность воздуха - влажноcть воздуха, измеренная на высоте 2 м над землей.
Te - Эффективная температура - температура, которую ощущает одетый по сезону человек в тени. Характеристика душности погоды. При расчете учитывается влияние влажности воздуха и скорости ветра на теплоощущения человека.
Tes - Эффективная температура на солнце - температура, которую ощущает человек, с поправкой на солнечный нагрев. Характеристика знойности погоды. Зависит от высоты солнца над горизонтом, облачности и скорости ветра. Ночью, в пасмурную погоду, а также при ветре 12 м/с и более поправка равна нулю.
P - Атмосферное давление - приведенное к уровню моря атмосферное давление.
Po - Атмосферное давление - измеренное на уровне метеостанции атмосферное давление.
Tmin - Минимальная температура - минимум температуры воздуха на высоте 2 м над землей.
Tmax - Максимальная температура - максимум температуры воздуха на высоте 2 м над землей.
R - Количество осадков - Количество выпавших осадков за период времени, мм. При наведении курсора мыши на число - период времени, за который выпало указанное количество осадков.
R24 - Количество осадков - Количество выпавших осадков за 24 часа, мм.
S - Снежный покров - Высота снежного покрова, см. При наведении курсора мыши на число - состояние снежного покрова и степень покрытия местности в баллах.